Regional Weather Roundup
Issued by NWS

Home | Current Version | Previous Version | Text Only | Print | Product List | Glossary On
Versions: 1 2 3 4 5 6 7 8 9 10 11 12 13 14 15 16 17 18 19 20 21 22 23 24 25 26 27
000
ASUS42 KKEY 250210
RWRKEY

FLORIDA REGIONAL WEATHER ROUNDUP FOR THE FLORIDA KEYS
NATIONAL WEATHER SERVICE KEY WEST FLORIDA
1000 PM EDT MON APR 24 2017

...SOUTH FLORIDA AND THE KEYS...

CITY           SKY/WX    TMP DP  RH WIND       PRES   REMARKS
FORT MYERS     PTCLDY    72  60  66 W10       29.79S
SW REGIONAL AP CLEAR     70  58  65 W6        29.80R
NAPLES         PTCLDY    73  61  65 W16       29.81R
MIAMI          CLEAR     75  63  66 W9        29.81R
WEST KENDALL   CLEAR     71  64  78 W8        29.81R
HOMESTEAD      CLEAR     73  67  81 W10       29.81R
MARATHON       PTCLDY    77  69  76 W9        29.83R
BOCA CHICA NAS PTCLDY    75  67  76 NW14      29.84R
KEY WEST INTL  MOCLDY    76  70  82 NW14      29.85R

...INTERNATIONAL WEATHER...

CITY           SKY/WX    TMP DP  RH WIND       PRES   REMARKS
NASSAU BAHAMAS PTCLDY    75  72  88 SW3       29.82R
CANCUN MEXICO  MOCLDY    75  72  88 N5        29.89R
COZUMEL MEXICO PTCLDY    77  72  83 NE6       29.88R

ADJACENT COASTAL WATERS...

STATION/POSITION TIME  SKY/WX   TEMP    WIND        PRES    WAVE
                                AIR SEA DIR/SP/G            HT/PER
                 (UTC)          (F)     (DEG/KT/KT) (MB)    (FT/S)
PULASKI SHOAL LI 0200            76     290/ 16/ 18 1010.6R
SAND KEY         0150            76     320/ 17/ 20 1011.0R
LONG KEY         0100            76 80  300/ 14/ 16 1009.9R
MOLASSES REEF    0200            76 77  330/ 14/ 16 1010.1R
FOWEY ROCKS      0200            75 77  270/ 17/ 19 1010.0R
Buoy 42097       0200                                 N/A     6/ 7

$$




USA.gov is the U.S. government's official web portal to all federal, state and local government web resources and services.